DL1NER Weather Reports


Display with metric or nautical units.
time (UTC)temp
F
wind
direction
speed
MPH
gust
MPH
rain 1hr
in
rain 24hr
in
rain mn
in
humidity
%
barometer
mb
20210307135237 47 193 3.0 7.0 0.00 0.00 0.00 26 1021.4
20210307134032 47 273 2.0 4.0 0.00 0.00 0.00 25 1021.5
20210307130211 46 342 1.0 3.0 0.00 0.00 0.00 26 1022.2
20210307124024 46 21 2.0 5.0 0.00 0.00 0.00 28 1022.6
20210307123054 46 343 2.0 5.0 0.00 0.00 0.00 26 1022.6
20210307120048 44 80 1.0 4.0 0.00 0.00 0.00 29 1023.2
20210307112538 43 325 2.0 5.0 0.00 0.00 0.00 30 1024.1
20210307111031 43 111 2.0 4.0 0.00 0.00 0.00 31 1024.2
20210307110343 42 91 3.0 7.0 0.00 0.00 0.00 32 1024.3
20210307105333 42 22 2.0 5.0 0.00 0.00 0.00 30 1024.5
20210307104022 42 30 2.0 4.0 0.00 0.00 0.00 34 1024.6
20210307103042 42 78 2.0 5.0 0.00 0.00 0.00 33 1024.6
20210307095411 38 5 2.0 4.0 0.00 0.00 0.00 45 1025.1
20210307093026 37 283 0.0 1.0 0.00 0.00 0.00 49 1025.3
20210307092219 35 283 1.0 2.0 0.00 0.00 0.00 49 1025.5
20210307085254 32 288 0.0 2.0 0.00 0.00 0.00 56 1025.9
20210307084036 31 288 0.0 2.0 0.00 0.00 0.00 57 1025.9
20210307083048 30 288 0.0 1.0 0.00 0.00 0.00 59 1025.9
20210307081020 28 288 0.0 2.0 0.00 0.00 0.00 62 1026.2
20210307080034 27 288 0.0 2.0 0.00 0.00 0.00 63 1026.1
20210307074024 26 288 1.0 2.0 0.00 0.00 0.00 65 1026.2
20210307065328 21 288 2.0 3.0 0.00 0.00 0.00 82 1026.3
20210307064023 21 287 0.0 3.0 0.00 0.00 0.00 81 1026.3
20210307062158 20 287 0.0 0.0 0.00 0.00 0.00 75 1026.2
20210307061024 20 287 0.0 0.0 0.00 0.00 0.00 75 1026.3
20210307044033 20 287 0.0 0.0 0.00 0.00 0.00 75 1026.8
20210307043028 20 287 0.0 1.0 0.00 0.00 0.00 74 1026.8
20210307040049 21 287 1.0 2.0 0.00 0.00 0.00 75 1026.8
20210307035322 21 287 2.0 3.0 0.00 0.00 0.00 75 1026.9
20210307031047 21 287 0.0 0.0 0.00 0.00 0.00 72 1026.9
20210307030053 21 287 0.0 0.0 0.00 0.00 0.00 70 1026.9
20210307025430 21 287 0.0 0.0 0.00 0.00 0.00 69 1027.1
20210307024046 21 287 0.0 0.0 0.00 0.00 0.00 69 1027.1
20210307023158 21 287 0.0 0.0 0.00 0.00 0.00 68 1027.2
20210307022406 22 287 0.0 1.0 0.00 0.00 0.00 67 1027.5
20210307015230 23 287 1.0 2.0 0.00 0.00 0.00 68 1028.0
20210307013023 23 287 1.0 2.0 0.00 0.00 0.00 68 1028.3
20210307011020 23 287 0.0 0.0 0.00 0.00 0.00 66 1028.8
20210307010136 23 287 0.0 2.0 0.00 0.00 0.00 66 1028.9
20210307004027 24 287 0.0 2.0 0.00 0.00 0.00 64 1029.0
20210306230042 26 287 1.0 2.0 0.00 0.00 0.00 60 1029.5
20210306224024 26 287 0.0 2.0 0.00 0.00 0.00 60 1029.6
20210306221026 27 287 1.0 2.0 0.00 0.00 0.00 58 1029.8
20210306220025 27 287 1.0 2.0 0.00 0.00 0.00 57 1029.8
20210306214026 27 287 0.0 0.0 0.00 0.00 0.00 55 1029.8
20210306213030 28 287 2.0 3.0 0.00 0.00 0.00 55 1029.8
20210306212334 28 287 2.0 3.0 0.00 0.00 0.00 55 1029.9
20210306211051 28 287 2.0 3.0 0.00 0.00 0.00 55 1029.9
20210306210027 28 287 1.0 2.0 0.00 0.00 0.00 55 1029.8
20210306203025 29 287 1.0 2.0 0.00 0.00 0.00 56 1029.8
20210306201021 29 287 1.0 2.0 0.00 0.00 0.00 53 1029.7
20210306200031 29 287 1.0 2.0 0.00 0.00 0.00 52 1029.6
20210306195139 30 287 2.0 3.0 0.00 0.00 0.00 51 1029.7
20210306194034 30 287 3.0 5.0 0.00 0.00 0.00 49 1029.7
20210306191021 31 355 1.0 2.0 0.00 0.00 0.00 51 1029.9
20210306185315 31 355 0.0 1.0 0.00 0.00 0.00 48 1030.0
20210306184024 32 355 1.0 2.0 0.00 0.00 0.00 47 1030.0
20210306183200 33 355 1.0 2.0 0.00 0.00 0.00 47 1030.0
20210306182148 34 355 2.0 3.0 0.00 0.00 0.00 46 1030.0
20210306175408 36 355 1.0 2.0 0.00 0.00 0.00 41 1030.2
20210306173032 38 355 1.0 2.0 0.00 0.00 0.00 33 1030.2
20210306172500 39 355 1.0 2.0 0.00 0.00 0.00 32 1030.2
20210306171025 40 355 1.0 3.0 0.00 0.00 0.00 31 1030.2
20210306170315 41 355 1.0 3.0 0.00 0.00 0.00 29 1030.2
20210306164024 42 355 1.0 5.0 0.00 0.00 0.00 28 1030.3
20210306161029 42 360 2.0 4.0 0.00 0.00 0.00 25 1030.4
20210306160034 43 27 2.0 2.0 0.00 0.00 0.00 25 1030.4
20210306155135 43 355 1.0 4.0 0.00 0.00 0.00 24 1030.4
20210306153045 44 84 1.0 3.0 0.00 0.00 0.00 24 1030.6
20210306152239 43 241 1.0 3.0 0.00 0.00 0.00 25 1030.7
20210306150023 45 296 2.0 4.0 0.00 0.00 0.00 24 1030.9
20210306145148 45 42 3.0 6.0 0.00 0.00 0.00 24 1031.1
20210306142145 45 55 3.0 8.0 0.00 0.00 0.00 22 1031.3
20210306141023 45 13 3.0 7.0 0.00 0.00 0.00 23 1031.3